SCO25FG EGBB-EGPF

Flight info

Callsign SCO25FG
Flight time 1h 3m
Altitude 28000
Route LUVUM DCT TNT N57 POL/N0361F240 N601 RIBEL DCT ASLIB
Aircraft A320/M-SDE3FGHIRWY/LB1

Departure

Time 2026-04-28 18:16
Airport Birmingham Airport (EGBB)

Arrival

Time 2026-04-28 19:19
Airport Glasgow Airport (EGPF)
Time Latitude Longitude Altitude Speed Heading
2026-04-28 17:57 52.44994 -1.73432 323 ft 0 kts 326°
2026-04-28 18:09 52.44979 -1.73414 322 ft 4 kts 315°
2026-04-28 18:10 52.44964 -1.73380 324 ft 4 kts 279°
2026-04-28 18:10 52.44966 -1.73350 320 ft 0 kts 236°
2026-04-28 18:12 52.44963 -1.73357 324 ft 3 kts 236°
2026-04-28 18:12 52.44944 -1.73404 324 ft 7 kts 236°
2026-04-28 18:12 52.44917 -1.73468 324 ft 6 kts 236°
2026-04-28 18:12 52.44899 -1.73527 323 ft 5 kts 256°
2026-04-28 18:13 52.44886 -1.73582 324 ft 5 kts 240°
2026-04-28 18:13 52.44864 -1.73637 324 ft 6 kts 234°
2026-04-28 18:13 52.44825 -1.73684 324 ft 9 kts 200°
2026-04-28 18:13 52.44764 -1.73714 324 ft 9 kts 196°
2026-04-28 18:14 52.44722 -1.73770 324 ft 7 kts 236°
2026-04-28 18:14 52.44698 -1.73828 325 ft 6 kts 236°
2026-04-28 18:14 52.44675 -1.73884 326 ft 10 kts 236°
2026-04-28 18:14 52.44658 -1.73990 325 ft 9 kts 314°
2026-04-28 18:15 52.44671 -1.74007 327 ft 0 kts 323°
2026-04-28 18:15 52.44768 -1.74115 323 ft 54 kts 327°
2026-04-28 18:15 52.45077 -1.74459 330 ft 103 kts 326°
2026-04-28 18:15 52.45848 -1.75321 331 ft 161 kts 329°
2026-04-28 18:16 52.46828 -1.76396 857 ft 173 kts 333°
2026-04-28 18:16 52.47812 -1.77541 1746 ft 173 kts 331°
2026-04-28 18:16 52.48753 -1.78706 2680 ft 168 kts 330°
2026-04-28 18:16 52.49822 -1.79475 3151 ft 173 kts
2026-04-28 18:17 52.51057 -1.79115 3548 ft 191 kts 18°
2026-04-28 18:17 52.52448 -1.78684 3965 ft 216 kts 15°
2026-04-28 18:17 52.54015 -1.78285 4471 ft 240 kts 13°
2026-04-28 18:17 52.55726 -1.77896 5257 ft 254 kts 12°
2026-04-28 18:18 52.57497 -1.77524 6179 ft 260 kts 12°
2026-04-28 18:18 52.59319 -1.77157 7117 ft 267 kts 12°
2026-04-28 18:18 52.61183 -1.76783 8042 ft 272 kts 12°
2026-04-28 18:18 52.62432 -1.76530 8692 ft 274 kts 12°
2026-04-28 18:19 52.64982 -1.76010 10001 ft 278 kts 12°
2026-04-28 18:19 52.66930 -1.75606 10720 ft 291 kts 12°
2026-04-28 18:19 52.69013 -1.75166 11116 ft 311 kts 12°
2026-04-28 18:19 52.71190 -1.74717 11885 ft 318 kts 12°
2026-04-28 18:20 52.73364 -1.74266 12742 ft 321 kts 13°
2026-04-28 18:20 52.75583 -1.73782 13636 ft 323 kts 13°
2026-04-28 18:20 52.77825 -1.73275 14435 ft 327 kts 13°
2026-04-28 18:20 52.80087 -1.72759 15196 ft 330 kts 13°
2026-04-28 18:21 52.82404 -1.72229 15981 ft 333 kts 13°
2026-04-28 18:21 52.84704 -1.71701 16757 ft 335 kts 13°
2026-04-28 18:21 52.87025 -1.71171 17527 ft 337 kts 13°
2026-04-28 18:21 52.89351 -1.70642 18282 ft 340 kts 13°
2026-04-28 18:22 52.91675 -1.70114 18975 ft 342 kts 13°
2026-04-28 18:22 52.94071 -1.69569 19636 ft 344 kts 14°
2026-04-28 18:22 52.96424 -1.69034 20294 ft 346 kts 14°
2026-04-28 18:22 52.98851 -1.68485 20973 ft 348 kts 14°
2026-04-28 18:23 53.01228 -1.67946 21572 ft 351 kts 14°
2026-04-28 18:23 53.03682 -1.67533 22181 ft 359 kts
2026-04-28 18:23 53.06209 -1.67848 22797 ft 371 kts 357°
2026-04-28 18:23 53.08764 -1.69040 23428 ft 383 kts 347°
2026-04-28 18:24 53.11233 -1.70582 24018 ft 386 kts 347°
2026-04-28 18:24 53.12941 -1.71649 24356 ft 388 kts 347°
2026-04-28 18:24 53.16308 -1.73742 25026 ft 392 kts 347°
2026-04-28 18:24 53.18872 -1.75327 25519 ft 395 kts 348°
2026-04-28 18:25 53.21456 -1.76926 26003 ft 397 kts 348°
2026-04-28 18:25 53.24092 -1.78565 26443 ft 400 kts 348°
2026-04-28 18:25 53.26710 -1.80196 26909 ft 403 kts 347°
2026-04-28 18:26 53.31986 -1.83493 27794 ft 408 kts 347°
2026-04-28 18:26 53.34651 -1.85165 28218 ft 411 kts 347°
2026-04-28 18:26 53.37335 -1.86849 28400 ft 411 kts 347°
2026-04-28 18:26 53.39956 -1.88512 28411 ft 393 kts 347°
2026-04-28 18:27 53.42469 -1.90122 28416 ft 383 kts 348°
2026-04-28 18:27 53.47418 -1.93252 28426 ft 378 kts 348°
2026-04-28 18:28 53.52312 -1.96315 28423 ft 378 kts 348°
2026-04-28 18:28 53.57237 -1.99412 28427 ft 378 kts 348°
2026-04-28 18:29 53.62165 -2.02534 28431 ft 378 kts 348°
2026-04-28 18:29 53.67089 -2.05664 28429 ft 378 kts 348°
2026-04-28 18:30 53.72009 -2.08804 28413 ft 378 kts 348°
2026-04-28 18:30 53.76920 -2.11983 28405 ft 378 kts 346°
2026-04-28 18:31 53.81799 -2.15321 28418 ft 378 kts 346°
2026-04-28 18:31 53.86672 -2.18695 28424 ft 378 kts 346°
2026-04-28 18:32 53.91543 -2.22038 28426 ft 378 kts 346°
2026-04-28 18:32 53.96415 -2.25381 28430 ft 377 kts 346°
2026-04-28 18:33 54.01273 -2.28737 28413 ft 379 kts 343°
2026-04-28 18:33 54.05967 -2.33009 28429 ft 383 kts 339°
2026-04-28 18:34 54.10632 -2.37383 28429 ft 383 kts 339°
2026-04-28 18:34 54.15298 -2.41764 28435 ft 383 kts 339°
2026-04-28 18:35 54.19959 -2.46153 28435 ft 383 kts 339°
2026-04-28 18:35 54.24622 -2.50559 28418 ft 382 kts 338°
2026-04-28 18:36 54.29273 -2.54960 28430 ft 382 kts 338°
2026-04-28 18:36 54.33913 -2.59360 28435 ft 381 kts 338°
2026-04-28 18:37 54.38528 -2.63749 28435 ft 381 kts 338°
2026-04-28 18:37 54.43159 -2.68163 28423 ft 381 kts 338°
2026-04-28 18:38 54.47792 -2.72596 28408 ft 381 kts 338°
2026-04-28 18:38 54.52411 -2.77028 28423 ft 380 kts 338°
2026-04-28 18:39 54.57037 -2.81464 28427 ft 380 kts 338°
2026-04-28 18:39 54.61655 -2.85907 28431 ft 380 kts 338°
2026-04-28 18:40 54.66278 -2.90378 28441 ft 381 kts 338°
2026-04-28 18:40 54.70894 -2.94850 28445 ft 381 kts 338°
2026-04-28 18:41 54.75597 -2.99400 28462 ft 401 kts 337°
2026-04-28 18:41 54.80560 -3.04212 28455 ft 413 kts 336°
2026-04-28 18:42 54.85513 -3.09080 28384 ft 396 kts 336°
2026-04-28 18:42 54.87864 -3.11411 28249 ft 383 kts 336°
2026-04-28 18:42 54.90147 -3.13672 27970 ft 374 kts 337°
2026-04-28 18:42 54.92406 -3.15890 27556 ft 370 kts 337°
2026-04-28 18:43 54.94637 -3.18074 27103 ft 367 kts 337°
2026-04-28 18:43 54.96853 -3.20247 26632 ft 364 kts 337°
2026-04-28 18:43 54.99020 -3.22381 26197 ft 362 kts 337°
2026-04-28 18:43 55.01205 -3.24537 25741 ft 359 kts 337°
2026-04-28 18:44 55.03372 -3.26678 25292 ft 357 kts 337°
2026-04-28 18:44 55.07700 -3.30957 24380 ft 353 kts 337°
2026-04-28 18:44 55.09827 -3.33060 23934 ft 351 kts 337°
2026-04-28 18:45 55.11921 -3.35138 23439 ft 349 kts 337°
2026-04-28 18:45 55.14047 -3.37256 22979 ft 346 kts 337°
2026-04-28 18:45 55.16105 -3.39310 22522 ft 344 kts 337°
2026-04-28 18:45 55.18205 -3.41405 22075 ft 342 kts 337°
2026-04-28 18:46 55.20238 -3.43430 21650 ft 339 kts 337°
2026-04-28 18:46 55.22284 -3.45469 21224 ft 337 kts 337°
2026-04-28 18:46 55.24311 -3.47494 20837 ft 334 kts 337°
2026-04-28 18:46 55.26323 -3.49503 20517 ft 332 kts 337°
2026-04-28 18:47 55.28326 -3.51506 20449 ft 332 kts 337°
2026-04-28 18:47 55.30338 -3.53518 20417 ft 332 kts 337°
2026-04-28 18:47 55.32332 -3.55519 20034 ft 330 kts 337°
2026-04-28 18:47 55.34324 -3.57520 19642 ft 328 kts 337°
2026-04-28 18:48 55.36299 -3.59511 19252 ft 327 kts 337°
2026-04-28 18:48 55.38261 -3.61494 18866 ft 325 kts 337°
2026-04-28 18:48 55.40213 -3.63467 18458 ft 323 kts 337°
2026-04-28 18:48 55.42158 -3.65433 18060 ft 321 kts 337°
2026-04-28 18:49 55.44089 -3.67386 17676 ft 319 kts 337°
2026-04-28 18:49 55.44740 -3.68045 17538 ft 319 kts 337°
2026-04-28 18:49 55.47921 -3.71272 16889 ft 316 kts 337°
2026-04-28 18:49 55.49815 -3.73200 16527 ft 314 kts 336°
2026-04-28 18:50 55.51702 -3.75118 16156 ft 312 kts 336°
2026-04-28 18:50 55.53582 -3.77029 15832 ft 309 kts 336°
2026-04-28 18:50 55.55438 -3.78919 15531 ft 307 kts 336°
2026-04-28 18:50 55.57286 -3.80804 15456 ft 307 kts 336°
2026-04-28 18:51 55.59121 -3.82767 15465 ft 309 kts 334°
2026-04-28 18:51 55.61012 -3.84485 15466 ft 303 kts 343°
2026-04-28 18:51 55.62852 -3.86382 15473 ft 313 kts 327°
2026-04-28 18:51 55.64508 -3.88910 15472 ft 316 kts 324°
2026-04-28 18:52 55.66142 -3.91507 15472 ft 316 kts 324°
2026-04-28 18:52 55.67785 -3.94123 15437 ft 315 kts 324°
2026-04-28 18:52 55.69408 -3.96698 15098 ft 314 kts 324°
2026-04-28 18:52 55.71031 -3.99271 14756 ft 313 kts 324°
2026-04-28 18:53 55.72653 -4.01835 14418 ft 311 kts 324°
2026-04-28 18:53 55.74275 -4.04356 14080 ft 309 kts 324°
2026-04-28 18:53 55.75696 -4.07241 13731 ft 316 kts 303°
2026-04-28 18:53 55.76375 -4.10963 13372 ft 322 kts 278°
2026-04-28 18:54 55.76144 -4.14965 13005 ft 325 kts 252°
2026-04-28 18:54 55.75166 -4.18542 12735 ft 321 kts 240°
2026-04-28 18:54 55.74065 -4.21905 12412 ft 318 kts 239°
2026-04-28 18:54 55.72944 -4.25278 12091 ft 316 kts 239°
2026-04-28 18:55 55.71831 -4.28619 11770 ft 313 kts 239°
2026-04-28 18:55 55.71087 -4.30846 11574 ft 311 kts 239°
2026-04-28 18:55 55.69619 -4.35246 10994 ft 314 kts 239°
2026-04-28 18:55 55.68511 -4.38568 10640 ft 312 kts 239°
2026-04-28 18:56 55.67414 -4.41860 10302 ft 309 kts 239°
2026-04-28 18:56 55.66328 -4.45121 9920 ft 307 kts 239°
2026-04-28 18:56 55.65250 -4.48362 9572 ft 304 kts 239°
2026-04-28 18:56 55.64195 -4.51550 9208 ft 296 kts 239°
2026-04-28 18:57 55.63165 -4.54678 8554 ft 292 kts 239°
2026-04-28 18:57 55.62153 -4.57760 7900 ft 289 kts 239°
2026-04-28 18:57 55.61154 -4.60812 7265 ft 286 kts 239°
2026-04-28 18:57 55.60155 -4.63865 6869 ft 284 kts 239°
2026-04-28 18:58 55.59315 -4.66989 6484 ft 281 kts 256°
2026-04-28 18:58 55.59270 -4.70383 6077 ft 277 kts 285°
2026-04-28 18:58 55.60093 -4.73362 5763 ft 266 kts 309°
2026-04-28 18:58 55.61264 -4.75851 5489 ft 259 kts 314°
2026-04-28 18:59 55.62431 -4.78192 5235 ft 251 kts 314°
2026-04-28 18:59 55.63654 -4.80349 4899 ft 246 kts 327°
2026-04-28 18:59 55.65192 -4.81402 4558 ft 235 kts 359°
2026-04-28 18:59 55.66745 -4.80834 4221 ft 227 kts 31°
2026-04-28 19:00 55.67921 -4.79061 3965 ft 218 kts 48°
2026-04-28 19:00 55.68611 -4.77781 3962 ft 207 kts 48°
2026-04-28 19:00 55.69554 -4.76036 3966 ft 190 kts 47°
2026-04-28 19:00 55.70425 -4.74428 3976 ft 171 kts 47°
2026-04-28 19:01 55.71209 -4.72983 3967 ft 157 kts 47°
2026-04-28 19:01 55.71963 -4.71592 3966 ft 156 kts 47°
2026-04-28 19:01 55.72717 -4.70200 3872 ft 156 kts 47°
2026-04-28 19:01 55.73455 -4.68836 3708 ft 155 kts 47°
2026-04-28 19:02 55.74216 -4.67430 3528 ft 155 kts 47°
2026-04-28 19:02 55.74959 -4.66058 3308 ft 155 kts 47°
2026-04-28 19:02 55.75706 -4.64677 3116 ft 155 kts 47°
2026-04-28 19:02 55.76455 -4.63290 2906 ft 155 kts 48°
2026-04-28 19:03 55.77201 -4.61909 2692 ft 155 kts 48°
2026-04-28 19:03 55.77948 -4.60525 2480 ft 155 kts 48°
2026-04-28 19:03 55.78694 -4.59142 2269 ft 155 kts 47°
2026-04-28 19:03 55.79441 -4.57756 2055 ft 155 kts 49°
2026-04-28 19:04 55.80181 -4.56384 1852 ft 154 kts 48°
2026-04-28 19:04 55.80913 -4.55024 1645 ft 152 kts 47°
2026-04-28 19:04 55.81631 -4.53691 1438 ft 146 kts 47°
2026-04-28 19:04 55.82314 -4.52421 1231 ft 136 kts 48°
2026-04-28 19:05 55.82963 -4.51214 1051 ft 136 kts 49°
2026-04-28 19:05 55.83614 -4.50001 865 ft 134 kts 47°
2026-04-28 19:05 55.84266 -4.48803 644 ft 134 kts 46°
2026-04-28 19:05 55.84922 -4.47604 492 ft 137 kts 46°
2026-04-28 19:06 55.85577 -4.46381 300 ft 134 kts 46°
2026-04-28 19:06 55.86215 -4.45165 120 ft 134 kts 46°
2026-04-28 19:06 55.86843 -4.43980 36 ft 124 kts 46°
2026-04-28 19:06 55.87468 -4.42802 451 ft 145 kts 46°
2026-04-28 19:07 55.88228 -4.41345 1146 ft 173 kts 48°
2026-04-28 19:07 55.89104 -4.39718 2022 ft 187 kts 47°
2026-04-28 19:07 55.90034 -4.38044 2763 ft 194 kts 47°
2026-04-28 19:07 55.90953 -4.36253 3034 ft 196 kts 58°
2026-04-28 19:08 55.91284 -4.33939 3299 ft 197 kts 95°
2026-04-28 19:08 55.90743 -4.31740 3535 ft 203 kts 130°
2026-04-28 19:08 55.89488 -4.30492 3805 ft 212 kts 166°
2026-04-28 19:08 55.88005 -4.30340 3965 ft 216 kts 178°
2026-04-28 19:09 55.86499 -4.30417 4006 ft 215 kts 179°
2026-04-28 19:09 55.85000 -4.30514 4015 ft 224 kts 179°
2026-04-28 19:09 55.83403 -4.30619 4013 ft 233 kts 179°
2026-04-28 19:09 55.81799 -4.31080 4006 ft 237 kts 201°
2026-04-28 19:10 55.80454 -4.32769 4011 ft 240 kts 221°
2026-04-28 19:10 55.79267 -4.34824 4009 ft 242 kts 224°
2026-04-28 19:10 55.78073 -4.36970 4012 ft 242 kts 224°
2026-04-28 19:10 55.76890 -4.39110 4010 ft 243 kts 224°
2026-04-28 19:11 55.75711 -4.41245 3924 ft 240 kts 224°
2026-04-28 19:11 55.74534 -4.43360 3593 ft 239 kts 224°
2026-04-28 19:11 55.73371 -4.45429 3344 ft 234 kts 224°
2026-04-28 19:11 55.72245 -4.47450 3122 ft 228 kts 224°
2026-04-28 19:12 55.71141 -4.49441 3004 ft 225 kts 224°
2026-04-28 19:12 55.70037 -4.51442 3011 ft 227 kts 224°
2026-04-28 19:12 55.69015 -4.53560 3001 ft 226 kts 238°
2026-04-28 19:12 55.68407 -4.56110 3001 ft 226 kts 258°
2026-04-28 19:13 55.68319 -4.58865 3003 ft 220 kts 279°
2026-04-28 19:13 55.68730 -4.61415 2999 ft 214 kts 298°
2026-04-28 19:13 55.69561 -4.63551 2999 ft 205 kts 317°
2026-04-28 19:13 55.70650 -4.65029 2994 ft 193 kts 336°
2026-04-28 19:14 55.71825 -4.66124 2996 ft 190 kts 335°
2026-04-28 19:14 55.73054 -4.66849 3004 ft 184 kts 360°
2026-04-28 19:14 55.74295 -4.66567 3003 ft 179 kts 25°
2026-04-28 19:14 55.75316 -4.65407 2863 ft 173 kts 47°
2026-04-28 19:15 55.76155 -4.63854 2581 ft 175 kts 48°
2026-04-28 19:15 55.76992 -4.62298 2354 ft 174 kts 48°
2026-04-28 19:15 55.77831 -4.60742 2135 ft 174 kts 48°
2026-04-28 19:15 55.78385 -4.59714 2056 ft 174 kts 48°
2026-04-28 19:16 55.79467 -4.57709 2022 ft 161 kts 48°
2026-04-28 19:16 55.80228 -4.56298 1818 ft 156 kts 48°
2026-04-28 19:16 55.80967 -4.54925 1606 ft 153 kts 48°
2026-04-28 19:16 55.81702 -4.53559 1422 ft 153 kts 47°
2026-04-28 19:17 55.82426 -4.52213 1202 ft 145 kts 48°
2026-04-28 19:17 55.83112 -4.50937 1011 ft 141 kts 48°
2026-04-28 19:17 55.83779 -4.49683 801 ft 140 kts 48°
2026-04-28 19:17 55.84438 -4.48450 636 ft 138 kts 46°
2026-04-28 19:18 55.85119 -4.47224 412 ft 139 kts 48°
2026-04-28 19:18 55.85772 -4.45982 237 ft 136 kts 46°
2026-04-28 19:18 55.86423 -4.44775 66 ft 135 kts 45°
2026-04-28 19:18 55.87020 -4.43659 29 ft 102 kts 46°
2026-04-28 19:19 55.87381 -4.42978 29 ft 57 kts 46°
2026-04-28 19:19 55.87618 -4.42540 29 ft 41 kts 46°
2026-04-28 19:19 55.87758 -4.42254 29 ft 14 kts 82°
2026-04-28 19:19 55.87711 -4.42167 29 ft 10 kts 156°
2026-04-28 19:20 55.87660 -4.42150 29 ft 0 kts 181°
2026-04-28 19:20 55.87630 -4.42161 29 ft 14 kts 197°
2026-04-28 19:20 55.87561 -4.42270 29 ft 13 kts 227°
2026-04-28 19:21 55.87497 -4.42390 29 ft 13 kts 226°
2026-04-28 19:21 55.87421 -4.42533 29 ft 20 kts 226°
2026-04-28 19:21 55.87309 -4.42644 29 ft 17 kts 199°
2026-04-28 19:21 55.87200 -4.42718 29 ft 16 kts 202°
2026-04-28 19:22 55.87095 -4.42789 29 ft 16 kts 199°
2026-04-28 19:22 55.87027 -4.42832 29 ft 15 kts 200°
2026-04-28 19:22 55.86904 -4.42935 29 ft 14 kts 207°
2026-04-28 19:22 55.86849 -4.43031 29 ft 11 kts 251°
2026-04-28 19:23 55.86827 -4.43161 29 ft 11 kts 253°
2026-04-28 19:23 55.86803 -4.43279 29 ft 8 kts 226°
2026-04-28 19:23 55.86754 -4.43291 29 ft 6 kts 210°
2026-04-28 19:23 55.86734 -4.43337 29 ft 3 kts 237°
2026-04-28 19:24 55.86726 -4.43358 29 ft 0 kts 237°